カタログに戻る

STARLINK-35577

運用中通信VLEO
NORAD 66538·PAYLOAD·🇺🇸 United States

打ち上げ Nov 19, 2025 から Cape Canaveral Space Force Station

Loading…

次のパス (今後24時間)

TLE

最新Source: CelesTrak SupGP

元期: Sep 14, 2026, 21:39 UTC

1 66538C 25265Y   26257.90256944  .00007238  00000+0  26218-3 0  2577
2 66538  43.0003 289.3323 0001342 268.7605   9.7089 15.27570057    17

AllMySatでSTARLINK-35577をリアルタイム追跡

Download on the App Store